LAGEOS 1

Last updated on Thu Sep 10 2026 00:03:34 GMT+0000 (Coordinated Universal Time)

1 08820U 76039A 26252.38933130 -.00000009 00000+0 00000+0 0 9998 2 08820 109.8158 208.1508 0044614 284.2192 232.9251 6.38664803918515
UTC large
Height (km)
Speed (km/s)
/
Latitude / Longitude
Inclination (degrees)
Orbital Period (minutes)
Azimuth
Elevation
Range (km)
Doppler Factor

Next 0 passes for location: London (51.5072 / 0.1276)

No passes found over London.
LAGEOS 1